Location: Kalberh�ni
(46.4610°N, 7.2453°E)
Time: 05:43:04
(UTC+00:00)

Cosmos 2333 Rocket - Pass Details

Date: 27 October 2021
Orbit: 837 x 865 km, 70.8° (Epoch: 05 December)

Event Time Altitude Azimuth Distance (km) Brightness Sun altitude
Rises 17:43:34 0° 182° (S) 3,383 5.4 -14.3°
Reaches altitude 10° 17:46:07 10° 175° (S) 2,456 4.6 -14.8°
Maximum altitude 17:51:20 40° 107° (ESE) 1,226 2.6 -15.7°
Enters shadow 17:55:44 15° 44° (NE) 2,179 3.9 -16.4°
